005  
NZUS59 KLOT 230108  
HRRLOT  
 
CHICAGO AREA WEATHER ROUNDUP  
NATIONAL WEATHER SERVICE CHICAGO/ROMEOVILLE IL  
800 PM CDT SUN APR 22 2018  
 
NOTE: "FAIR" INDICATES FEW OR NO CLOUDS BELOW 12,000 FEET WITH NO  
SIGNIFICANT WEATHER AND/OR OBSTRUCTIONS TO VISIBILITY.  
 
* THESE STATIONS ARE NOT UNDER NWS QUALITY CONTROL. THEY ALSO MAY NOT  
REPORT WEATHER SUCH AS PRECIPITATION OR FOG.  
 
ILZ005-006-012>014-019>023-230200-  
NORTHEAST ILLINOIS  
 
CITY SKY/WX TMP DP RH WIND PRES REMARKS  
OHARE MOCLDY 51 26 37 NE12 30.26R  
MIDWAY MOCLDY 51 27 39 NE15 30.26R  
AURORA N/A 54 25 32 NE13 30.23S  
LANSING* N/A 46 34 63 NE12G18 30.25S  
JOLIET* N/A 56 28 33 NE9 30.23R  
WAUKEGAN N/A 44 28 53 NE14 30.27R  
DUPAGE AIRPORT N/A 51 26 37 NE8 30.24R  
WHEELING N/A 50 23 34 NE12 30.28R  
KANKAKEE* N/A 52 33 47 NE10 30.22R  
MORRIS* N/A 53 30 41 NE6 30.21S  
LEWIS AIRPORT* N/A 53 28 37 NE15 30.24R  
NORTHERLY ISL N/A 43 31 63 MISG N/A  

 
 
WIZ051-052-058>065-066-070>072-230200-  
SOUTHEAST WISCONSIN  
 
CITY SKY/WX TMP DP RH WIND PRES REMARKS  
MILWAUKEE MOCLDY 43 28 55 NE8 30.30R  
KENOSHA* N/A 46 27 47 NE9 30.28R  
RACINE* N/A 41 28 60 NE8 30.30S  
BURLINGTON N/A 52 25 35 E3 30.27S  
WAUKESHA CLEAR 48 25 40 E5 30.29S  
WEST BEND N/A 50 23 34 E8 30.29R  

 
 
INZ001>003-010>013-019-020-230200-  
NORTHWEST INDIANA  
 
CITY SKY/WX TMP DP RH WIND PRES REMARKS  
GARY* MOCLDY 45 32 61 NE12 30.26R  
MICHIGAN CITY* NOT AVBL  
RENSSELAER* NOT AVBL  
VALPARAISO N/A 54 28 36 E10 30.24R  

 
 
LMZ740>746-230200-  
SOUTHERN LAKE MICHIGAN  
 
STATION/POSITION TIME SKY/WX TEMP WIND PRES VSBY  
AIR DIR/SP/G  
(UTC) (F) (DEG/KT/KT) (MB) (MI)  
HARRISON CRIB 0040 42 350/ 4/ 5 N/A  
BURNHAM HARBOR 0100 43 360/ 8/ 12 N/A  
CALUMET HARBOR 0042 42 350/ 8/ 10 1024.3R  
BURNS HARBOR 0040 43 60/ 10/ 12 1025.1R  
MICHIGAN CITY 0040 42 30/ 13/ 14 N/A  

 
 
ABBREVIATIONS USED IN REMARKS  
TC - TEMPERATURE IN CELSIUS  
WCI - WIND CHILL INDEX  
HX - HEAT INDEX  
VSB - VISIBILITY  

 
 
 
CLICK HERE TO GO TO PREVIOUS BULLETINS.

The Nexlab IL Page
The Nexlab IN Page Main Text Page